[[{"header":{"parameterUnit":"m.s-1","parameterCategory":1,"la1":30.2991,"la2":30.254,"lo1":-89.0895,"lo2":-89.0444,"dy":0.0017,"dx":0.0017,"nx":28,"ny":28,"refTime":"2025-08-16T21:00:00:Z","depth":0,"parameterNumber":2,"parameterNumberName":"U-component_of_WINDS"},"data":[0,0,0,0,0,0,0,0,0,0,0,0,0,0,0,0,0,0,0,0,0,0,0,0,0,0,0,0,0,0,0,0,0,0,0,0,0,0,0,0,0,0,0,0,0,0,0,0,0,0,0,0,0,0,0,0,0,0,-0.4292,-0.4291,0,-0.4164,-0.4163,-0.4161,-0.4124,-0.4125,-0.4126,-0.4126,-0.3994,-0.399,-0.3985,0,0,0,0,0,0,0,0,0,0,0,0,0,-0.4504,-0.45,-0.4293,-0.4291,-0.4289,-0.4165,-0.4163,-0.4161,-0.4124,-0.4125,-0.4126,-0.4127,-0.3995,-0.399,-0.3985,0,0,0,0,0,0,0,0,0,0,0,0,0,-0.4397,-0.4499,-0.4293,-0.4256,-0.4251,-0.4165,-0.4163,-0.4161,-0.4124,-0.4125,-0.4126,-0.4127,-0.3997,-0.3991,-0.3984,-0.3925,0,0,-0.3965,-0.3963,0,0,0,0,0,0,0,0,-0.4404,-0.439,-0.4263,-0.4258,-0.4253,-0.4161,-0.4189,-0.4082,-0.4124,-0.4172,-0.4126,-0.4128,-0.4049,-0.4038,-0.4012,-0.3919,-0.3913,-0.3965,-0.3961,-0.3958,-0.3956,0,0,0,0,0,0,0,-0.4411,-0.4395,-0.4242,-0.4261,-0.4255,-0.4245,-0.4231,-0.4168,-0.4106,-0.4168,-0.4165,-0.4151,-0.4046,-0.4018,-0.4008,-0.3911,-0.3965,-0.3959,-0.3955,-0.3953,-0.3763,-0.3762,0,0,0,0,0,0,-0.4425,-0.4401,-0.4246,-0.4238,-0.4332,-0.4241,-0.4225,-0.419,-0.4107,-0.4095,-0.415,-0.4149,-0.4028,-0.4016,-0.4004,-0.3928,-0.3958,-0.3952,-0.3949,-0.3764,-0.3762,-0.3761,0,0,0,0,0,0,-0.443,-0.4411,-0.4251,-0.4319,-0.4298,-0.4236,-0.4197,-0.4187,-0.4158,-0.4093,-0.4082,-0.4133,-0.4028,-0.4012,-0.3945,-0.3923,-0.395,-0.3944,-0.3766,-0.3764,-0.3762,-0.3777,0,0,0,0,0,0,-0.4436,-0.4413,-0.439,-0.4319,-0.4294,-0.4195,-0.4195,-0.4183,-0.4148,-0.4146,-0.4074,-0.4063,-0.4028,-0.3954,-0.3939,-0.3915,-0.3939,-0.3767,-0.3765,-0.3762,-0.3779,-0.3776,-0.3774,0,0,0,0,0,-0.4443,-0.4399,-0.4389,-0.4371,-0.4264,-0.4194,-0.418,-0.4141,-0.4146,-0.4123,-0.4081,-0.4065,-0.3928,-0.3948,-0.393,-0.3904,-0.3768,-0.3765,-0.3763,-0.378,-0.3777,-0.3774,0,0,0,0,0,0,-0.4469,-0.4389,-0.4377,-0.4309,-0.4258,-0.4188,-0.4156,-0.4139,-0.4086,-0.4086,-0.404,-0.4024,-0.396,-0.3925,-0.3948,-0.3842,-0.3848,-0.3841,-0.3867,-0.3864,-0.3862,-0.3871,-0.3934,0,0,0,0,0,-0.4467,-0.4417,-0.435,-0.4296,-0.4271,-0.4218,-0.4186,-0.4161,-0.4107,-0.4085,-0.4038,-0.3985,-0.3931,-0.3895,-0.3841,-0.3774,-0.3757,-0.3747,-0.3745,-0.3744,-0.3738,-0.37,-0.3694,-0.3752,-0.3752,-0.3752,0,0,-0.4462,-0.4412,-0.4383,-0.43,-0.4258,-0.4206,-0.42,-0.4146,-0.4108,-0.4076,-0.401,-0.3974,-0.3912,-0.3844,-0.3812,-0.3813,-0.3719,-0.374,-0.3739,-0.3734,-0.3696,-0.3691,-0.3686,-0.375,-0.375,-0.375,0,0,-0.4426,-0.4384,-0.4334,-0.4292,-0.4229,-0.4194,-0.4183,-0.4114,-0.4089,-0.4022,-0.3997,-0.3951,-0.3857,-0.3814,-0.378,-0.3729,-0.3713,-0.3713,-0.3702,-0.3665,-0.366,-0.3656,-0.3638,-0.3632,-0.3708,-0.3708,-0.3708,0,-0.4427,-0.435,-0.431,-0.4258,-0.4222,-0.4192,-0.4141,-0.4102,-0.4025,-0.4,-0.4003,-0.3885,-0.3842,-0.3764,-0.3751,-0.3725,-0.371,-0.3721,-0.3664,-0.366,-0.3655,-0.3637,-0.363,-0.3708,-0.3708,-0.3708,-0.3708,0,-0.4354,-0.4301,-0.4268,-0.4194,-0.4155,-0.4103,-0.4056,-0.4021,-0.3999,-0.3964,-0.3896,-0.3843,-0.3778,-0.3757,-0.3735,-0.3676,-0.3679,-0.3674,-0.3678,-0.3651,-0.3633,-0.3626,-0.3709,-0.3709,-0.3709,-0.3709,0,0,-0.433,-0.4236,-0.4225,-0.4191,-0.412,-0.4077,-0.4025,-0.3961,-0.3932,-0.3879,-0.3834,-0.3756,-0.3751,-0.3712,-0.3685,-0.3653,-0.3616,-0.3652,-0.3649,-0.3647,-0.3547,-0.3552,-0.3544,-0.3605,-0.3604,-0.3603,-0.3552,0,-0.4285,-0.419,-0.4154,-0.4076,-0.4026,-0.3997,-0.3951,-0.3902,-0.3868,-0.382,-0.3783,-0.3728,-0.3726,-0.3702,-0.3669,-0.3628,-0.3595,-0.3631,-0.3562,-0.356,-0.3578,-0.3535,-0.3539,-0.3494,-0.3545,-0.3544,-0.3543,0,-0.4219,-0.4167,-0.4085,-0.402,-0.3997,-0.3957,-0.3896,-0.3851,-0.3795,-0.3772,-0.373,-0.3705,-0.3649,-0.3658,-0.3579,-0.3604,-0.3574,-0.3549,-0.3547,-0.3538,-0.355,-0.3525,-0.3479,-0.3472,-0.3532,-0.3533,-0.3534,0,-0.421,-0.4119,-0.4058,-0.403,-0.3952,-0.3925,-0.3891,-0.3836,-0.3801,-0.3747,-0.3724,-0.3665,-0.3633,-0.3587,-0.3547,-0.3558,-0.3472,-0.3478,-0.3452,-0.3453,-0.3435,-0.3436,-0.3383,-0.3416,-0.3416,-0.3416,-0.3416,0,-0.4163,-0.4114,-0.4053,-0.4015,-0.3959,-0.3917,-0.3863,-0.3827,-0.3779,-0.3733,-0.3705,-0.3663,-0.3613,-0.3565,-0.3533,-0.3473,-0.3459,-0.3439,-0.3431,-0.3441,-0.3443,-0.342,-0.3422,-0.3414,-0.3415,-0.3415,-0.3416,0,-0.4143,-0.41,-0.4031,-0.3964,-0.3946,-0.3908,-0.385,-0.3812,-0.3777,-0.372,-0.3705,-0.365,-0.3591,-0.3547,-0.3471,-0.345,-0.3386,-0.3378,-0.3405,-0.3401,-0.3377,-0.338,-0.3307,-0.3295,-0.3337,-0.3336,-0.3336,0,-0.4115,-0.4077,-0.4006,-0.3974,-0.3941,-0.3889,-0.3853,-0.3811,-0.3775,-0.3708,-0.3678,-0.3618,-0.3568,-0.3476,-0.3429,-0.3371,-0.3361,-0.334,-0.3352,-0.3364,-0.3361,-0.3363,-0.3359,-0.3338,-0.3337,-0.3337,-0.3337,0,-0.4072,-0.4052,-0.4002,-0.3944,-0.3902,-0.3854,-0.3805,-0.378,-0.373,-0.369,-0.363,-0.3591,-0.3515,-0.3455,-0.3393,-0.3358,-0.3339,-0.3334,-0.3324,-0.3334,-0.3352,-0.3342,-0.34,-0.3335,-0.3335,-0.3336,-0.3336,-0.3336,-0.4046,-0.4011,-0.3956,-0.39,-0.3859,-0.3815,-0.3776,-0.3737,-0.3687,-0.3621,-0.3599,-0.3538,-0.3483,-0.3397,-0.3362,-0.3313,-0.3313,-0.3299,-0.3296,-0.3293,-0.3294,-0.336,-0.3301,-0.3301,-0.3301,-0.3301,-0.3301,0,-0.4001,-0.3964,-0.3914,-0.3847,-0.3804,-0.379,-0.3736,-0.3701,-0.3647,-0.3598,-0.3549,-0.3481,-0.3423,-0.3372,-0.3312,-0.3283,-0.3273,-0.3269,-0.327,-0.3263,-0.3298,-0.3312,-0.3278,-0.3278,-0.3278,-0.3278,-0.3278,-0.3278,-0.3972,-0.3912,-0.3886,-0.3805,-0.3768,-0.3708,-0.3678,-0.3637,-0.3598,-0.3523,-0.3475,-0.3443,-0.3392,-0.3329,-0.3276,-0.3262,-0.3241,-0.3239,-0.3224,-0.3257,-0.326,-0.3263,-0.3276,-0.3235,-0.3235,-0.3193,-0.3192,-0.3192]},{"header":{"parameterUnit":"m.s-1","parameterCategory":1,"la1":30.2991,"la2":30.254,"lo1":-89.0895,"lo2":-89.0444,"dy":0.0017,"dx":0.0017,"nx":28,"ny":28,"refTime":"2025-08-16T21:00:00:Z","depth":0,"parameterNumber":3,"parameterNumberName":"V-component_of_WINDS"},"data":[0,0,0,0,0,0,0,0,0,0,0,0,0,0,0,0,0,0,0,0,0,0,0,0,0,0,0,0,0,0,0,0,0,0,0,0,0,0,0,0,0,0,0,0,0,0,0,0,0,0,0,0,0,0,0,0,0,0,0.4731,0.4732,0,0.4773,0.4773,0.4774,0.475,0.4749,0.4748,0.4747,0.4789,0.4791,0.4793,0,0,0,0,0,0,0,0,0,0,0,0,0,0.4629,0.4631,0.4731,0.4732,0.4732,0.4773,0.4773,0.4774,0.4751,0.4749,0.4748,0.4747,0.4788,0.4791,0.4794,0,0,0,0,0,0,0,0,0,0,0,0,0,0.4672,0.4631,0.4731,0.4726,0.4726,0.4773,0.4773,0.4774,0.4751,0.4749,0.4748,0.4746,0.4787,0.4791,0.4794,0.4849,0,0,0.4804,0.4805,0,0,0,0,0,0,0,0,0.467,0.4676,0.4726,0.4726,0.4726,0.4755,0.4752,0.4799,0.4751,0.4741,0.4747,0.4745,0.4779,0.4783,0.4794,0.485,0.4852,0.4804,0.4806,0.4808,0.4808,0,0,0,0,0,0,0,0.4667,0.4674,0.4748,0.4727,0.4727,0.472,0.4724,0.4761,0.4769,0.4742,0.4741,0.4746,0.4779,0.4791,0.4795,0.4853,0.4804,0.4807,0.4809,0.481,0.495,0.4952,0,0,0,0,0,0,0.4664,0.4672,0.4746,0.4749,0.4693,0.4723,0.4728,0.4747,0.4769,0.477,0.4747,0.4744,0.4787,0.4791,0.4797,0.4858,0.4808,0.4811,0.4812,0.4948,0.495,0.4952,0,0,0,0,0,0,0.4662,0.4671,0.4745,0.471,0.4719,0.4727,0.4749,0.4749,0.4762,0.4773,0.4774,0.4759,0.4785,0.4792,0.4834,0.4859,0.4812,0.4815,0.4946,0.4949,0.4951,0.4983,0,0,0,0,0,0,0.4659,0.4671,0.4693,0.471,0.4721,0.4783,0.475,0.4751,0.4767,0.4764,0.4784,0.4785,0.4785,0.483,0.4838,0.4863,0.4818,0.4944,0.4947,0.4951,0.498,0.4987,0.4993,0,0,0,0,0,0.4656,0.4701,0.4694,0.4703,0.4748,0.4785,0.479,0.4789,0.477,0.479,0.4797,0.4785,0.4856,0.4834,0.4843,0.487,0.4942,0.4947,0.495,0.4977,0.4986,0.4992,0,0,0,0,0,0,0.4687,0.4704,0.4696,0.4748,0.4765,0.4781,0.4808,0.4798,0.4821,0.4817,0.4814,0.4818,0.4861,0.487,0.4846,0.4921,0.4896,0.4902,0.4913,0.4921,0.4927,0.4923,0.482,0,0,0,0,0,0.47,0.4729,0.4742,0.4787,0.4795,0.48,0.4816,0.4813,0.483,0.4837,0.4847,0.4863,0.4889,0.4906,0.4931,0.4982,0.4983,0.5004,0.501,0.5015,0.5019,0.5043,0.5051,0.4965,0.4965,0.4965,0,0,0.4728,0.474,0.4759,0.4793,0.4806,0.4834,0.4806,0.4839,0.4858,0.4842,0.4881,0.4889,0.4907,0.4953,0.4974,0.4962,0.5043,0.502,0.5024,0.5026,0.5047,0.5055,0.5063,0.4968,0.4967,0.4967,0,0,0.479,0.4805,0.4841,0.4853,0.4872,0.4874,0.4883,0.4899,0.4903,0.4943,0.4929,0.4953,0.4998,0.501,0.5022,0.5085,0.5073,0.5093,0.5125,0.5147,0.5154,0.516,0.5179,0.5186,0.5098,0.5098,0.5098,0,0.4822,0.4864,0.4861,0.4893,0.4906,0.4892,0.4927,0.4939,0.4965,0.4975,0.4961,0.5014,0.5026,0.5071,0.5086,0.5098,0.5105,0.509,0.5153,0.5159,0.5165,0.5182,0.519,0.51,0.51,0.51,0.51,0,0.4899,0.4929,0.4956,0.4979,0.4996,0.503,0.503,0.5048,0.5042,0.5045,0.5083,0.5096,0.5121,0.5132,0.5128,0.5176,0.5168,0.5154,0.5128,0.5175,0.5191,0.5198,0.5103,0.5103,0.5102,0.5101,0,0,0.4985,0.5003,0.5013,0.5021,0.5039,0.5061,0.5092,0.5115,0.5128,0.5146,0.517,0.5207,0.5193,0.5206,0.5203,0.5224,0.5267,0.5207,0.5207,0.5214,0.5316,0.5324,0.5333,0.526,0.5261,0.5262,0.5313,0,0.5046,0.51,0.5096,0.5147,0.5171,0.5155,0.5182,0.5195,0.5198,0.5218,0.5221,0.5245,0.5227,0.5234,0.5254,0.5258,0.5287,0.5254,0.528,0.5281,0.5273,0.5342,0.5352,0.5399,0.532,0.5321,0.5322,0,0.5125,0.5143,0.5195,0.5204,0.5214,0.5239,0.5257,0.5278,0.529,0.5291,0.5304,0.5296,0.5325,0.53,0.5338,0.5316,0.5326,0.5329,0.5331,0.5331,0.5303,0.5341,0.5415,0.5421,0.5333,0.5332,0.5331,0,0.5177,0.5214,0.5249,0.5257,0.527,0.5286,0.5293,0.5304,0.5316,0.5333,0.534,0.536,0.537,0.5385,0.5382,0.5365,0.5419,0.5395,0.5418,0.5418,0.5429,0.5428,0.5502,0.5441,0.544,0.544,0.544,0,0.5244,0.5275,0.5271,0.5293,0.5326,0.5321,0.5354,0.5358,0.5368,0.5388,0.5377,0.5396,0.5392,0.541,0.5408,0.5438,0.5444,0.5443,0.5441,0.5442,0.5442,0.5447,0.5443,0.5442,0.5442,0.5441,0.5441,0,0.5307,0.5306,0.5342,0.535,0.5353,0.5377,0.5383,0.5402,0.5403,0.5428,0.5434,0.5435,0.5456,0.5455,0.5479,0.5477,0.5513,0.5509,0.5508,0.5506,0.5528,0.5524,0.5606,0.5615,0.555,0.5551,0.5551,0,0.5348,0.5372,0.5381,0.5393,0.54,0.542,0.5432,0.5427,0.5439,0.5453,0.547,0.5489,0.5504,0.5538,0.554,0.5558,0.5552,0.558,0.5555,0.5553,0.5548,0.5546,0.5546,0.5584,0.5585,0.5585,0.5586,0,0.542,0.5418,0.5435,0.5451,0.5465,0.5478,0.5489,0.55,0.5496,0.551,0.553,0.5542,0.5564,0.5583,0.5599,0.5604,0.5593,0.5593,0.5599,0.5599,0.5596,0.5594,0.5518,0.5591,0.5591,0.559,0.559,0.559,0.5472,0.549,0.5498,0.5516,0.5524,0.5534,0.555,0.5552,0.5569,0.5586,0.5582,0.5604,0.5612,0.5632,0.5639,0.5655,0.5645,0.5654,0.5656,0.5657,0.5658,0.5595,0.5658,0.5658,0.5658,0.5658,0.5658,0,0.554,0.5543,0.556,0.5575,0.5589,0.5577,0.5588,0.56,0.5619,0.5628,0.5642,0.5663,0.568,0.5683,0.5699,0.5711,0.5706,0.5714,0.5712,0.5713,0.5668,0.566,0.5718,0.5718,0.5718,0.5718,0.5718,0.5718,0.5577,0.5605,0.5603,0.5634,0.5637,0.5657,0.5664,0.5672,0.5679,0.5702,0.5716,0.5717,0.5723,0.5738,0.5752,0.5752,0.5757,0.5767,0.5765,0.5723,0.5717,0.5711,0.5703,0.5769,0.5769,0.5808,0.5809,0.5809]}]]